Location: Ottawa
(45.4170°N, 75.7000°W)
Time: 14:12:37
(UTC-05:00)

Daily predictions for brighter satellites

Satellite Brightness Start Highest point End
(mag) Time Altitude Azimuth Time Altitude Azimuth Time Altitude Azimuth
BREEZE-M DEB (TANK) 2.6 17:57:26 10° WSW 17:59:30 83° SSE 18:06:08 10° ENE
CZ-2C R/B 4.3 17:59:53 10° SSW 18:04:03 34° W 18:08:14 10° NNW
Cosmos 1461 4.1 18:04:56 10° NNW 18:08:09 22° NE 18:11:22 10° E
Cosmos 1992 Rocket 4.1 18:04:25 10° NNW 18:09:35 55° ENE 18:14:42 10° SE
Thor Agena Rocket 3.8 18:06:04 10° NNE 18:11:09 74° WNW 18:16:10 10° SSW
SKYMED 2 3.5 18:08:00 10° NNE 18:12:21 75° ESE 18:16:41 10° S
Cosmos 1825 4.1 18:08:57 10° SW 18:12:28 35° WNW 18:16:00 10° N
Cosmos 1975 Rocket 3.0 18:08:59 10° N 18:13:16 59° ENE 18:17:32 10° SSE
Timation 2 Rocket 4.5 18:07:08 10° SSW 18:14:00 76° WNW 18:20:56 10° NNE
SJ-6B 3.4 18:10:34 10° SE 18:14:18 37° ENE 18:17:59 10° N
Tiangong 2 1.5 18:13:12 10° WSW 18:16:13 52° S 18:19:11 10° ESE
METEOR-M 4.2 18:11:44 10° SSE 18:16:58 59° ENE 18:22:14 10° N
Nadezhda 1 Rocket 4.1 18:12:27 10° N 18:18:27 54° ENE 18:24:21 10° SSE
Cosmos 44 3.2 18:18:01 10° NNW 18:22:26 53° NE 18:26:40 10° SE
Sich 1 Rocket 4.1 18:18:42 10° SSW 18:23:13 66° W 18:27:48 10° N
NOAA 12 4.1 18:19:35 10° SSE 18:24:51 71° ENE 18:30:11 10° N
Cosmos 1484 Rocket 4.3 18:21:29 10° S 18:25:17 43° W 18:29:05 10° NNW
GEOS 3 Rocket 4.0 18:20:55 10° NE 18:25:58 47° ESE 18:31:02 10° SSW
DMSP B5D1-3 4.5 18:21:37 10° NNE 18:26:46 73° ESE 18:31:53 10° S
ERBS 2.9 18:23:32 10° NW 18:26:59 62° SW 18:30:24 10° SE
Cosmos 2082 Rocket 3.4 18:23:12 10° SW 18:28:37 44° WNW 18:34:06 10° NNE
Resurs 01 Rocket 2.4 18:26:25 10° SE 18:30:18 31° ENE 18:34:12 10° N
SL-16 R/B 2.3 18:24:58 10° NNW 18:30:34 54° ENE 18:36:06 10° SE
Cosmos 2360 4.5 18:25:43 10° NNW 18:31:28 75° WSW 18:37:10 10° SSE
Cosmos 1536 Rocket 4.3 18:27:55 10° N 18:31:54 31° ENE 18:35:54 10° SE
DNEPR-1 R/B 3.8 18:28:09 10° NNW 18:32:22 45° NE 18:36:22 10° ESE
Cosmos 1190 Rocket 4.5 18:30:48 10° SSE 18:35:31 37° ESE 18:40:16 10° NE
RESURS DK-1 4.0 18:33:12 10° WSW 18:37:00 34° NW 18:40:52 10° NNE
Okean 1 3.7 18:36:39 10° N 18:40:32 42° ENE 18:44:23 10° SSE
Spot 2 Rocket 3.7 18:43:45 10° SE 18:48:35 49° ENE 18:53:28 10° N
FREGAT/IRIS 2.7 18:47:02 10° S 18:50:07 78° WSW 18:53:13 10° NNW
Cosmos 2322 Rocket 2.1 18:45:11 10° NNW 18:50:50 77° ENE 18:56:26 10° SSE
Cosmos 1782 Rocket 4.3 18:47:34 10° SSW 18:51:55 58° WNW 18:56:21 10° N
Cosmos 1709 Rocket 4.2 18:47:24 10° SSE 18:53:19 47° E 18:59:12 10° NNE
Cosmos 1633 4.2 18:52:23 10° SSE 18:53:51 19° SE 18:53:51 19° SE
Cosmos 1340 3.2 18:53:12 10° N 18:56:44 35° ENE 18:58:21 24° ESE
Cosmos 2322 4.4 18:52:39 10° NNW 18:57:52 35° NE 19:00:35 23° E
CZ-2D R/B 3.8 18:57:04 22° ESE 18:58:55 36° ENE 19:02:27 10° N
Cosmos 1238 Rocket 3.5 18:56:28 10° NNE 18:58:29 25° NE 18:58:29 25° NE
Meteor 1-25 Rocket 4.2 18:54:13 10° S 18:59:48 86° E 19:05:30 10° NNE
COSMO-SKYMED 1 4.3 18:56:17 10° N 19:00:15 35° WNW 19:04:11 10° SW
Resurs 1-3 3.7 18:56:08 10° SSE 19:00:23 52° ENE 19:04:40 10° N
USA 186 4.0 19:03:10 12° NNE 19:03:10 12° NNE 19:03:35 10° NNE
Okean 2 Rocket 3.6 18:57:15 10° SSW 19:01:40 62° W 19:06:05 10° N
Envisat 4.0 19:04:34 24° ENE 19:04:51 24° ENE 19:08:53 10° N
ALOS 2.2 19:00:46 10° SSE 19:05:27 87° ENE 19:10:09 10° NNW
Meteor 2-4 Rocket 4.3 19:00:31 10° N 19:05:36 33° ENE 19:07:41 25° ESE
Meteor 1-11 Rocket 4.2 19:00:32 10° SSE 19:05:45 37° E 19:11:04 10° NNE
HJ-1C 3.3 19:02:45 10° SSE 19:06:08 86° WSW 19:09:32 10° NNW
CENTAUR R/B 3.9 18:58:59 10° NW 19:06:33 52° WSW 19:14:33 10° SSE
COSMOS 2428 3.8 19:02:33 10° N 19:07:08 24° NE 19:08:08 23° ENE
Cosmos 1300 Rocket 4.0 19:06:01 10° SSE 19:10:04 38° E 19:14:11 10° NNE
H-2A R/B 2.5 19:10:34 10° SSE 19:14:14 73° ENE 19:17:58 10° N
Spot 1 4.0 19:13:54 33° SE 19:15:24 51° ENE 19:19:23 10° N
NOSS 2-2 (E) 4.2 19:11:52 10° SW 19:15:58 55° NW 19:20:31 12° NNE
Cosmos 2151 Rocket 3.6 19:15:04 10° S 19:19:33 84° W 19:24:07 10° N
FENGYUN 3A 3.9 19:17:14 10° S 19:22:38 71° WSW 19:28:04 10° NNW
Cosmos 1818 3.7 19:17:29 10° S 19:22:42 49° ESE 19:24:33 35° ENE
Cosmos 1812 4.2 19:19:18 10° NNW 19:22:55 38° W 19:26:30 10° SSW
ATLAS CENTAUR R/B 4.1 19:21:25 10° WNW 19:24:15 16° NW 19:26:59 10° N
ERS-1 Rocket 4.4 19:25:50 21° NE 19:25:50 21° NE 19:28:21 10° N
Cosmos 2237 Rocket 4.1 19:21:45 10° N 19:24:29 14° NE 19:24:29 14° NE
USA 215 4.4 19:21:00 17° NE 19:24:59 32° N 19:30:36 10° WNW
deb Kosmos-1763 4.2 19:22:33 10° SSW 19:26:22 76° WNW 19:28:55 20° NNE
DELTA 2 R/B (1) 4.1 19:28:03 10° WSW 19:33:25 46° S 19:35:05 36° SE
Okean 1-7 Rocket 3.9 19:35:20 10° N 19:39:06 49° NE 19:39:06 49° NE
Cosmos 2360 Rocket 2.1 19:39:25 10° NNW 19:45:06 82° ENE 19:46:58 44° SE
Cosmos 1461 3.7 19:43:39 10° NW 19:47:30 46° WSW 19:48:31 37° SSW
Cosmos 1570 Rocket 4.2 19:42:53 10° NNW 19:47:39 52° NE 19:47:39 52° NE
Cosmos 2219 Rocket 3.4 19:45:15 10° N 19:48:55 26° NNE 19:48:55 26° NNE
Tiangong 2 3.3 19:49:39 10° W 19:51:10 22° WSW 19:51:10 22° WSW
Cosmos 676 Rocket 4.0 19:47:56 10° SSW 19:53:07 79° WNW 19:57:42 14° NNE
Helios 1A 3.2 19:52:22 49° SSW 19:53:18 65° WSW 19:57:28 10° NNW
SL-16 R/B 4.4 19:52:07 10° NNE 19:52:56 11° NNE 19:52:56 11° NNE
Cosmos 407 Rocket 4.1 19:49:40 10° SW 19:54:48 55° WNW 20:00:02 10° NNE
Cosmos 1833 4.0 19:55:05 10° SSW 20:00:48 81° ESE 20:01:51 61° NE
Cosmos 2333 Rocket 3.5 19:58:21 10° N 20:01:48 26° NNE 20:01:48 26° NNE
Resurs 01 Rocket 3.6 20:02:59 10° SSW 20:06:46 28° W 20:10:34 10° NW
Cosmos 2208 Rocket 4.2 20:02:46 10° NNW 20:07:32 63° NNE 20:07:32 63° NNE
SL-16 R/B 4.2 20:09:46 10° NW 20:14:18 25° WSW 20:18:48 10° SSW
Cosmos 2327 Rocket 4.3 20:11:12 10° S 20:17:24 84° E 20:23:44 10° N
Cosmos 2184 Rocket 4.1 20:27:13 10° SSW 20:33:33 74° W 20:39:52 10° N
Cosmos 2074 Rocket 4.2 20:30:04 10° SSW 20:36:16 68° W 20:42:33 10° N
Envisat 4.1 20:44:45 40° WNW 20:44:45 40° WNW 20:48:30 10° NNW
COSMOS 2428 3.7 20:46:16 10° NNW 20:50:11 44° NW 20:50:11 44° NW
USA 229 DEB 4.0 20:47:17 10° NW 20:53:17 66° NNW 20:53:17 66° NNW
USA 229 4.0 20:47:23 10° NW 20:53:22 66° NNW 20:53:22 66° NNW
USA 215 4.2 21:08:20 38° N 21:08:20 38° N 21:13:07 10° NW
Cosmos 2237 Rocket 4.1 21:04:18 10° NNW 21:06:20 23° NNW 21:06:20 23° NNW
ATLAS 2AS CENTAUR R/B 4.4 21:05:44 10° NNW 21:11:55 27° NNE 21:11:55 27° NNE
Cosmos 2219 Rocket 4.4 21:28:51 10° NW 21:30:39 21° NW 21:30:39 21° NW
